DLH998 EDDF-EDDM

Flight info

Callsign DLH998
Flight time 0h 29m
Altitude 23000
Route CINDY8S/18 CINDY Z74 HAREM T104 ROKIL ROKIL1A
Aircraft A320/M-SDE3FGHIRWY/LB1

Departure

Time 2026-05-04 12:30
Airport Frankfurt Main Airport (EDDF)

Arrival

Time 2026-05-04 13:00
Airport Munich Airport (EDDM)
Time Latitude Longitude Altitude Speed Heading
2026-05-04 12:01 50.04737 8.56737 361 ft 0 kts 115°
2026-05-04 12:19 50.04737 8.56735 361 ft 2 kts 115°
2026-05-04 12:19 50.04744 8.56707 363 ft 2 kts 109°
2026-05-04 12:19 50.04750 8.56683 361 ft 3 kts 134°
2026-05-04 12:20 50.04764 8.56669 361 ft 3 kts 181°
2026-05-04 12:20 50.04784 8.56675 358 ft 3 kts 204°
2026-05-04 12:20 50.04788 8.56678 357 ft 0 kts 205°
2026-05-04 12:23 50.04768 8.56664 363 ft 5 kts 204°
2026-05-04 12:23 50.04736 8.56622 365 ft 8 kts 236°
2026-05-04 12:23 50.04707 8.56556 356 ft 7 kts 230°
2026-05-04 12:23 50.04667 8.56524 359 ft 6 kts 202°
2026-05-04 12:24 50.04626 8.56495 362 ft 9 kts 204°
2026-05-04 12:24 50.04562 8.56451 356 ft 11 kts 204°
2026-05-04 12:24 50.04514 8.56382 359 ft 9 kts 250°
2026-05-04 12:24 50.04489 8.56270 356 ft 14 kts 249°
2026-05-04 12:25 50.04452 8.56117 362 ft 16 kts 249°
2026-05-04 12:25 50.04410 8.56028 356 ft 15 kts 195°
2026-05-04 12:25 50.04302 8.56074 359 ft 17 kts 178°
2026-05-04 12:25 50.04236 8.55928 358 ft 19 kts 251°
2026-05-04 12:26 50.04187 8.55724 357 ft 21 kts 249°
2026-05-04 12:26 50.04133 8.55494 355 ft 24 kts 250°
2026-05-04 12:26 50.04075 8.55248 357 ft 24 kts 248°
2026-05-04 12:26 50.04013 8.54993 355 ft 26 kts 250°
2026-05-04 12:27 50.03946 8.54717 355 ft 29 kts 249°
2026-05-04 12:27 50.03875 8.54416 352 ft 31 kts 249°
2026-05-04 12:27 50.03781 8.54141 353 ft 28 kts 246°
2026-05-04 12:27 50.03725 8.53911 345 ft 19 kts 250°
2026-05-04 12:28 50.03675 8.53700 346 ft 22 kts 250°
2026-05-04 12:28 50.03619 8.53465 339 ft 24 kts 250°
2026-05-04 12:28 50.03555 8.53207 338 ft 27 kts 248°
2026-05-04 12:28 50.03487 8.52927 333 ft 29 kts 250°
2026-05-04 12:29 50.03419 8.52676 332 ft 14 kts 248°
2026-05-04 12:29 50.03347 8.52593 336 ft 14 kts 178°
2026-05-04 12:29 50.03220 8.52595 336 ft 34 kts 180°
2026-05-04 12:29 50.02712 8.52598 335 ft 108 kts 180°
2026-05-04 12:30 50.01768 8.52607 337 ft 161 kts 180°
2026-05-04 12:30 50.00596 8.52607 858 ft 170 kts 181°
2026-05-04 12:30 49.99410 8.52614 1634 ft 171 kts 180°
2026-05-04 12:30 49.98205 8.52636 2306 ft 180 kts 180°
2026-05-04 12:31 49.96925 8.53055 2727 ft 202 kts 150°
2026-05-04 12:31 49.95869 8.54654 3166 ft 225 kts 120°
2026-05-04 12:31 49.95116 8.56852 3793 ft 236 kts 118°
2026-05-04 12:31 49.94360 8.59117 3968 ft 237 kts 111°
2026-05-04 12:32 49.94018 8.61633 4018 ft 256 kts 93°
2026-05-04 12:32 49.93638 8.67335 4299 ft 275 kts 108°
2026-05-04 12:32 49.92788 8.69971 5376 ft 273 kts 126°
2026-05-04 12:33 49.91465 8.72078 6356 ft 275 kts 143°
2026-05-04 12:33 49.89902 8.73830 7309 ft 278 kts 144°
2026-05-04 12:33 49.88465 8.75864 8196 ft 283 kts 130°
2026-05-04 12:33 49.87371 8.78426 9083 ft 287 kts 119°
2026-05-04 12:34 49.86392 8.81144 9978 ft 290 kts 119°
2026-05-04 12:34 49.85381 8.83940 10496 ft 309 kts 119°
2026-05-04 12:34 49.84289 8.86957 10799 ft 333 kts 119°
2026-05-04 12:34 49.83116 8.90197 11081 ft 354 kts 119°
2026-05-04 12:35 49.81892 8.93569 11669 ft 363 kts 119°
2026-05-04 12:35 49.80643 8.97008 12397 ft 368 kts 119°
2026-05-04 12:35 49.79381 9.00480 13146 ft 372 kts 120°
2026-05-04 12:35 49.78104 9.03982 13860 ft 376 kts 120°
2026-05-04 12:36 49.76830 9.07537 14559 ft 380 kts 116°
2026-05-04 12:36 49.75862 9.11356 15215 ft 384 kts 106°
2026-05-04 12:36 49.75159 9.15356 15844 ft 388 kts 109°
2026-05-04 12:36 49.74056 9.19175 16479 ft 391 kts 120°
2026-05-04 12:37 49.72501 9.22631 17085 ft 394 kts 130°
2026-05-04 12:37 49.70679 9.25824 17686 ft 397 kts 131°
2026-05-04 12:37 49.68847 9.29040 18253 ft 401 kts 131°
2026-05-04 12:37 49.67004 9.32292 18790 ft 405 kts 131°
2026-05-04 12:38 49.65145 9.35578 19329 ft 408 kts 131°
2026-05-04 12:38 49.63270 9.38896 19880 ft 411 kts 131°
2026-05-04 12:38 49.61382 9.42227 20373 ft 414 kts 131°
2026-05-04 12:38 49.59477 9.45582 20889 ft 418 kts 131°
2026-05-04 12:39 49.57555 9.48960 21379 ft 421 kts 131°
2026-05-04 12:39 49.55620 9.52356 21839 ft 424 kts 131°
2026-05-04 12:39 49.53666 9.55782 22314 ft 427 kts 131°
2026-05-04 12:39 49.51725 9.59182 22766 ft 430 kts 131°
2026-05-04 12:40 49.49746 9.62647 22967 ft 431 kts 131°
2026-05-04 12:40 49.47741 9.66148 23011 ft 443 kts 131°
2026-05-04 12:40 49.45680 9.69739 23010 ft 452 kts 131°
2026-05-04 12:40 49.43596 9.73374 23009 ft 454 kts 131°
2026-05-04 12:41 49.41505 9.77014 23010 ft 455 kts 131°
2026-05-04 12:41 49.39407 9.80655 23009 ft 455 kts 131°
2026-05-04 12:41 49.37304 9.84295 23010 ft 455 kts 131°
2026-05-04 12:41 49.35202 9.87928 23008 ft 455 kts 131°
2026-05-04 12:42 49.33103 9.91552 23008 ft 455 kts 131°
2026-05-04 12:42 49.30996 9.95177 23009 ft 455 kts 132°
2026-05-04 12:42 49.28886 9.98801 23008 ft 455 kts 132°
2026-05-04 12:42 49.26778 10.02423 23009 ft 455 kts 132°
2026-05-04 12:43 49.24667 10.06044 23010 ft 456 kts 132°
2026-05-04 12:43 49.22556 10.09659 23011 ft 455 kts 132°
2026-05-04 12:43 49.20471 10.13225 23012 ft 455 kts 132°
2026-05-04 12:43 49.18362 10.16832 23011 ft 455 kts 132°
2026-05-04 12:44 49.16250 10.20443 23009 ft 455 kts 132°
2026-05-04 12:44 49.14137 10.24052 23007 ft 455 kts 132°
2026-05-04 12:44 49.12006 10.27621 23007 ft 455 kts 133°
2026-05-04 12:44 49.09838 10.31151 23007 ft 455 kts 134°
2026-05-04 12:45 49.07655 10.34638 23007 ft 455 kts 134°
2026-05-04 12:45 49.05455 10.38116 23007 ft 455 kts 134°
2026-05-04 12:45 49.03259 10.41582 23005 ft 455 kts 134°
2026-05-04 12:45 49.01052 10.45074 22530 ft 461 kts 134°
2026-05-04 12:46 48.98829 10.48603 21537 ft 461 kts 134°
2026-05-04 12:46 48.96628 10.52104 20773 ft 455 kts 134°
2026-05-04 12:46 48.94453 10.55572 19996 ft 450 kts 134°
2026-05-04 12:46 48.92308 10.58998 19250 ft 445 kts 134°
2026-05-04 12:47 48.90186 10.62384 18520 ft 440 kts 134°
2026-05-04 12:47 48.88086 10.65731 17823 ft 435 kts 134°
2026-05-04 12:47 48.86011 10.69028 17161 ft 429 kts 134°
2026-05-04 12:47 48.83956 10.72272 16522 ft 423 kts 134°
2026-05-04 12:48 48.81933 10.75459 15905 ft 417 kts 134°
2026-05-04 12:48 48.79934 10.78607 15329 ft 411 kts 134°
2026-05-04 12:48 48.77967 10.81700 14756 ft 405 kts 134°
2026-05-04 12:48 48.76025 10.84749 14198 ft 399 kts 134°
2026-05-04 12:49 48.74107 10.87759 13608 ft 394 kts 134°
2026-05-04 12:49 48.72206 10.90739 13005 ft 390 kts 134°
2026-05-04 12:49 48.70327 10.93679 12390 ft 387 kts 134°
2026-05-04 12:49 48.68463 10.96594 11740 ft 384 kts 134°
2026-05-04 12:50 48.66615 10.99477 11158 ft 379 kts 134°
2026-05-04 12:50 48.64819 11.02276 11015 ft 362 kts 134°
2026-05-04 12:50 48.63104 11.04940 10888 ft 346 kts 134°
2026-05-04 12:50 48.61461 11.07490 10762 ft 332 kts 134°
2026-05-04 12:51 48.59883 11.09935 10636 ft 319 kts 134°
2026-05-04 12:51 48.58352 11.12281 10510 ft 307 kts 137°
2026-05-04 12:51 48.56693 11.14223 10341 ft 298 kts 146°
2026-05-04 12:51 48.54989 11.15947 10195 ft 293 kts 146°
2026-05-04 12:52 48.53300 11.17659 10129 ft 292 kts 146°
2026-05-04 12:52 48.51634 11.19370 10026 ft 292 kts 143°
2026-05-04 12:52 48.50093 11.21447 9571 ft 298 kts 136°
2026-05-04 12:52 48.48630 11.23596 9249 ft 294 kts 136°
2026-05-04 12:53 48.47179 11.25749 8901 ft 292 kts 135°
2026-05-04 12:53 48.45734 11.27895 8513 ft 290 kts 135°
2026-05-04 12:53 48.44295 11.30027 8129 ft 289 kts 136°
2026-05-04 12:53 48.42868 11.32135 7698 ft 285 kts 136°
2026-05-04 12:54 48.41456 11.34215 7012 ft 283 kts 136°
2026-05-04 12:54 48.40053 11.36277 6294 ft 282 kts 136°
2026-05-04 12:54 48.38655 11.38329 5699 ft 276 kts 136°
2026-05-04 12:54 48.37327 11.40274 5496 ft 256 kts 136°
2026-05-04 12:55 48.36101 11.42072 5384 ft 239 kts 136°
2026-05-04 12:55 48.34934 11.43781 5277 ft 231 kts 136°
2026-05-04 12:55 48.33803 11.45437 5176 ft 224 kts 136°
2026-05-04 12:55 48.32780 11.47157 5020 ft 219 kts 122°
2026-05-04 12:56 48.32216 11.49263 4824 ft 218 kts 100°
2026-05-04 12:56 48.32201 11.51530 4559 ft 218 kts 83°
2026-05-04 12:56 48.32384 11.53794 4272 ft 219 kts 83°
2026-05-04 12:56 48.32565 11.56009 3990 ft 215 kts 83°
2026-05-04 12:57 48.32739 11.58197 3729 ft 206 kts 83°
2026-05-04 12:57 48.32903 11.60271 3457 ft 193 kts 83°
2026-05-04 12:57 48.33055 11.62191 3201 ft 177 kts 83°
2026-05-04 12:57 48.33202 11.63924 2953 ft 160 kts 82°
2026-05-04 12:58 48.33330 11.65558 2679 ft 156 kts 84°
2026-05-04 12:58 48.33443 11.67164 2476 ft 153 kts 84°
2026-05-04 12:58 48.33555 11.68762 2304 ft 154 kts 83°
2026-05-04 12:58 48.33679 11.70358 2170 ft 153 kts 82°
2026-05-04 12:59 48.33811 11.71928 1991 ft 153 kts 82°
2026-05-04 12:59 48.33937 11.73504 1776 ft 152 kts 83°
2026-05-04 12:59 48.34061 11.75077 1555 ft 151 kts 83°
2026-05-04 12:59 48.34173 11.76551 1468 ft 123 kts 82°
2026-05-04 13:00 48.34242 11.77382 1468 ft 40 kts 84°
2026-05-04 13:00 48.34276 11.77811 1464 ft 43 kts 83°
2026-05-04 13:00 48.34319 11.78230 1469 ft 30 kts 64°
2026-05-04 13:00 48.34440 11.78469 1464 ft 29 kts 56°
2026-05-04 13:01 48.34562 11.78721 1462 ft 30 kts 52°
2026-05-04 13:01 48.34640 11.78995 1462 ft 29 kts 84°
2026-05-04 13:01 48.34662 11.79292 1467 ft 24 kts 82°
2026-05-04 13:01 48.34685 11.79525 1462 ft 13 kts 62°
2026-05-04 13:02 48.34770 11.79554 1459 ft 13 kts
2026-05-04 13:02 48.34854 11.79559 1467 ft 12 kts 358°
2026-05-04 13:02 48.34956 11.79538 1467 ft 16 kts 352°
2026-05-04 13:02 48.35076 11.79520 1467 ft 18 kts 352°
2026-05-04 13:03 48.35209 11.79496 1463 ft 20 kts 353°
2026-05-04 13:03 48.35301 11.79481 1457 ft 9 kts 353°
2026-05-04 13:03 48.35355 11.79471 1464 ft 7 kts 353°
2026-05-04 13:03 48.35400 11.79456 1460 ft 6 kts 330°
2026-05-04 13:04 48.35410 11.79413 1462 ft 4 kts 260°
2026-05-04 13:04 48.35407 11.79379 1467 ft 3 kts 266°
2026-05-04 13:04 48.35408 11.79355 1466 ft 2 kts 278°
2026-05-04 13:04 48.35410 11.79328 1467 ft 3 kts 273°
2026-05-04 13:05 48.35411 11.79318 1467 ft 0 kts 272°
2026-05-04 13:06 48.35411 11.79317 1467 ft 0 kts 270°
2026-05-04 13:06 48.35411 11.79319 1467 ft 0 kts 270°